Time,TemperatureF,DewpointF,PressureIn,WindDirection,WindDirectionDegrees,WindSpeedMPH,WindSpeedGustMPH,Humidity,HourlyPrecipIn,Conditions,Clouds,dailyrainin,SoftwareType,DateUTC
2013-02-21 00:00:00,26.2,16.4,29.76,West,281,5.0,17.0,66,0.00,,---,0.01,VWS V14.00,2013-02-21 05:00:00,
2013-02-21 00:05:00,26.2,16.4,29.76,NW,305,8.0,19.0,66,0.00,,---,0.00,VWS V14.00,2013-02-21 05:05:00,
2013-02-21 00:10:00,26.2,16.4,29.77,WNW,283,6.0,19.0,66,0.00,,---,0.00,VWS V14.00,2013-02-21 05:10:00,
2013-02-21 00:15:00,26.2,16.4,29.77,NW,304,8.0,19.0,66,0.00,,---,0.00,VWS V14.00,2013-02-21 05:15:00,
2013-02-21 00:20:00,26.2,16.4,29.76,NW,325,8.0,19.0,66,0.00,,---,0.00,VWS V14.00,2013-02-21 05:20:00,
2013-02-21 00:25:00,26.2,16.4,29.77,NW,325,8.0,20.0,66,0.00,,---,0.00,VWS V14.00,2013-02-21 05:25:00,
2013-02-21 00:30:00,26.2,16.4,29.78,West,277,3.0,20.0,66,0.00,,---,0.00,VWS V14.00,2013-02-21 05:30:00,
2013-02-21 00:35:00,26.2,16.8,29.78,WNW,282,5.0,13.0,67,0.00,,---,0.00,VWS V14.00,2013-02-21 05:35:00,
2013-02-21 00:40:00,26.0,16.6,29.78,NW,310,8.0,13.0,67,0.00,,---,0.00,VWS V14.00,2013-02-21 05:40:00,
2013-02-21 00:45:00,26.0,16.6,29.79,WSW,253,3.0,13.0,67,0.00,,---,0.00,VWS V14.00,2013-02-21 05:45:00,
2013-02-21 00:50:00,26.0,16.6,29.79,West,277,5.0,13.0,67,0.00,,---,0.00,VWS V14.00,2013-02-21 05:50:00,
2013-02-21 00:55:00,26.0,16.9,29.79,NW,308,1.0,13.0,68,0.00,,---,0.00,VWS V14.00,2013-02-21 05:55:00,
2013-02-21 01:00:00,26.0,16.9,29.79,WNW,303,8.0,13.0,68,0.00,,---,0.00,VWS V14.00,2013-02-21 06:00:00,
2013-02-21 01:05:00,26.1,17.0,29.79,NNW,338,7.0,13.0,68,0.00,,---,0.00,VWS V14.00,2013-02-21 06:05:00,
2013-02-21 01:10:00,26.2,17.1,29.79,NW,322,5.0,15.0,68,0.00,,---,0.00,VWS V14.00,2013-02-21 06:10:00,
2013-02-21 01:15:00,26.2,17.1,29.79,WNW,286,6.0,15.0,68,0.00,,---,0.00,VWS V14.00,2013-02-21 06:15:00,
2013-02-21 01:20:00,26.3,17.2,29.78,WNW,290,6.0,15.0,68,0.00,,---,0.00,VWS V14.00,2013-02-21 06:20:00,
2013-02-21 01:25:00,26.4,17.3,29.78,West,266,3.0,15.0,68,0.00,,---,0.00,VWS V14.00,2013-02-21 06:25:00,
2013-02-21 01:30:00,26.4,17.3,29.78,West,276,6.0,15.0,68,0.00,,---,0.00,VWS V14.00,2013-02-21 06:30:00,
2013-02-21 01:35:00,26.5,17.4,29.78,WNW,284,4.0,12.0,68,0.00,,---,0.00,VWS V14.00,2013-02-21 06:35:00,
2013-02-21 01:40:00,26.5,17.7,29.79,WNW,286,9.0,12.0,69,0.00,,---,0.00,VWS V14.00,2013-02-21 06:40:00,
2013-02-21 01:45:00,26.5,17.7,29.78,NW,309,6.0,12.0,69,0.00,,---,0.00,VWS V14.00,2013-02-21 06:45:00,
2013-02-21 01:50:00,26.6,17.8,29.78,WNW,295,5.0,12.0,69,0.00,,---,0.00,VWS V14.00,2013-02-21 06:50:00,
2013-02-21 01:55:00,26.6,17.5,29.78,WNW,301,7.0,12.0,68,0.00,,---,0.00,VWS V14.00,2013-02-21 06:55:00,
2013-02-21 02:00:00,26.6,17.8,29.79,West,266,8.0,12.0,69,0.00,,---,0.00,VWS V14.00,2013-02-21 07:00:00,
2013-02-21 02:05:00,26.6,17.5,29.79,NNW,340,4.0,11.0,68,0.00,,---,0.00,VWS V14.00,2013-02-21 07:05:00,
2013-02-21 02:10:00,26.6,17.8,29.79,WSW,252,3.0,11.0,69,0.00,,---,0.00,VWS V14.00,2013-02-21 07:10:00,
2013-02-21 02:15:00,26.5,17.7,29.79,West,271,4.0,11.0,69,0.00,,---,0.00,VWS V14.00,2013-02-21 07:15:00,
2013-02-21 02:20:00,26.5,17.7,29.78,WNW,293,3.0,13.0,69,0.00,,---,0.00,VWS V14.00,2013-02-21 07:20:00,
2013-02-21 02:25:00,26.5,17.7,29.79,West,280,2.0,13.0,69,0.00,,---,0.00,VWS V14.00,2013-02-21 07:25:00,
2013-02-21 02:30:00,26.5,17.7,29.78,WSW,237,4.0,13.0,69,0.00,,---,0.00,VWS V14.00,2013-02-21 07:30:00,
2013-02-21 02:35:00,26.5,17.7,29.78,West,274,3.0,14.0,69,0.00,,---,0.00,VWS V14.00,2013-02-21 07:35:00,
2013-02-21 02:40:00,26.6,17.8,29.78,West,270,8.0,16.0,69,0.00,,---,0.00,VWS V14.00,2013-02-21 07:40:00,
2013-02-21 02:45:00,26.6,17.8,29.78,West,274,6.0,16.0,69,0.00,,---,0.00,VWS V14.00,2013-02-21 07:45:00,
2013-02-21 02:50:00,26.6,17.8,29.78,West,272,7.0,16.0,69,0.00,,---,0.00,VWS V14.00,2013-02-21 07:50:00,
2013-02-21 02:55:00,26.6,17.5,29.78,WSW,246,3.0,16.0,68,0.00,,---,0.00,VWS V14.00,2013-02-21 07:55:00,
2013-02-21 03:00:00,26.5,17.7,29.78,NW,313,4.0,16.0,69,0.00,,---,0.00,VWS V14.00,2013-02-21 08:00:00,
2013-02-21 03:05:00,26.4,17.6,29.78,WSW,257,1.0,14.0,69,0.00,,---,0.00,VWS V14.00,2013-02-21 08:05:00,
2013-02-21 03:10:00,26.3,17.5,29.78,WNW,302,4.0,14.0,69,0.00,,---,0.00,VWS V14.00,2013-02-21 08:10:00,
2013-02-21 03:15:00,26.3,17.5,29.78,WNW,292,3.0,14.0,69,0.00,,---,0.00,VWS V14.00,2013-02-21 08:15:00,
2013-02-21 03:20:00,26.2,17.4,29.78,West,278,2.0,14.0,69,0.00,,---,0.00,VWS V14.00,2013-02-21 08:20:00,
2013-02-21 03:25:00,26.2,17.4,29.79,WNW,300,8.0,14.0,69,0.00,,---,0.00,VWS V14.00,2013-02-21 08:25:00,
2013-02-21 03:30:00,26.1,17.3,29.78,West,279,2.0,14.0,69,0.00,,---,0.00,VWS V14.00,2013-02-21 08:30:00,
2013-02-21 03:35:00,25.9,17.1,29.79,WNW,291,2.0,8.0,69,0.00,,---,0.00,VWS V14.00,2013-02-21 08:35:00,
2013-02-21 03:40:00,25.9,17.1,29.79,WSW,257,1.0,9.0,69,0.00,,---,0.00,VWS V14.00,2013-02-21 08:40:00,
2013-02-21 03:45:00,25.9,17.1,29.79,NW,313,6.0,10.0,69,0.00,,---,0.00,VWS V14.00,2013-02-21 08:45:00,
2013-02-21 03:50:00,25.8,17.0,29.79,WSW,258,3.0,10.0,69,0.00,,---,0.00,VWS V14.00,2013-02-21 08:50:00,
2013-02-21 03:55:00,25.7,17.0,29.79,West,277,3.0,10.0,69,0.00,,---,0.00,VWS V14.00,2013-02-21 08:55:00,
2013-02-21 04:00:00,25.7,17.0,29.79,WNW,282,11.0,14.0,69,0.00,,---,0.00,VWS V14.00,2013-02-21 09:00:00,
2013-02-21 04:05:00,25.8,17.0,29.80,West,269,7.0,7.0,69,0.00,,---,0.00,VWS V14.00,2013-02-21 09:05:00,
2013-02-21 04:10:00,25.8,16.7,29.80,West,266,8.0,12.0,68,0.00,,---,0.00,VWS V14.00,2013-02-21 09:10:00,
2013-02-21 04:15:00,25.9,16.8,29.80,West,277,15.0,15.0,68,0.00,,---,0.00,VWS V14.00,2013-02-21 09:15:00,
2013-02-21 04:20:00,25.9,16.8,29.79,West,263,6.0,15.0,68,0.00,,---,0.00,VWS V14.00,2013-02-21 09:20:00,
2013-02-21 04:25:00,25.9,16.5,29.79,WSW,243,9.0,15.0,67,0.00,,---,0.00,VWS V14.00,2013-02-21 09:25:00,
2013-02-21 04:30:00,25.9,16.5,29.80,WNW,282,13.0,15.0,67,0.00,,---,0.00,VWS V14.00,2013-02-21 09:30:00,
2013-02-21 04:35:00,25.9,16.1,29.80,West,268,10.0,16.0,66,0.00,,---,0.00,VWS V14.00,2013-02-21 09:35:00,
2013-02-21 04:39:00,25.9,16.1,29.80,West,272,3.0,16.0,66,0.00,,---,0.00,VWS V14.00,2013-02-21 09:39:00,
2013-02-21 04:44:00,25.8,16.4,29.80,NW,306,8.0,16.0,67,0.00,,---,0.00,VWS V14.00,2013-02-21 09:44:00,
2013-02-21 04:49:00,25.7,15.9,29.80,WNW,288,6.0,16.0,66,0.00,,---,0.00,VWS V14.00,2013-02-21 09:49:00,
2013-02-21 04:54:00,25.6,16.2,29.80,WSW,250,4.0,16.0,67,0.00,,---,0.00,VWS V14.00,2013-02-21 09:54:00,
2013-02-21 04:59:00,25.5,16.1,29.80,WNW,302,8.0,16.0,67,0.00,,---,0.00,VWS V14.00,2013-02-21 09:59:00,
2013-02-21 05:04:00,25.4,16.0,29.81,WSW,240,5.0,11.0,67,0.00,,---,0.00,VWS V14.00,2013-02-21 10:04:00,
2013-02-21 05:09:00,25.2,15.8,29.81,WSW,240,11.0,11.0,67,0.00,,---,0.00,VWS V14.00,2013-02-21 10:09:00,
2013-02-21 05:14:00,25.1,15.7,29.81,NW,305,7.0,14.0,67,0.00,,---,0.00,VWS V14.00,2013-02-21 10:14:00,
2013-02-21 05:19:00,25.1,15.7,29.81,WNW,292,3.0,14.0,67,0.00,,---,0.00,VWS V14.00,2013-02-21 10:19:00,
2013-02-21 05:24:00,25.1,15.7,29.81,WNW,302,7.0,15.0,67,0.00,,---,0.00,VWS V14.00,2013-02-21 10:24:00,
2013-02-21 05:29:00,25.1,15.4,29.80,West,268,22.0,22.0,66,0.00,,---,0.00,VWS V14.00,2013-02-21 10:29:00,
2013-02-21 05:34:00,25.2,15.4,29.79,WSW,244,9.0,17.0,66,0.00,,---,0.00,VWS V14.00,2013-02-21 10:34:00,
2013-02-21 05:39:00,25.1,15.4,29.79,West,274,12.0,20.0,66,0.00,,---,0.00,VWS V14.00,2013-02-21 10:39:00,
2013-02-21 05:44:00,25.2,15.4,29.79,WNW,302,10.0,21.0,66,0.00,,---,0.00,VWS V14.00,2013-02-21 10:44:00,
2013-02-21 05:49:00,25.1,15.0,29.80,West,273,11.0,21.0,65,0.00,,---,0.00,VWS V14.00,2013-02-21 10:49:00,
2013-02-21 05:54:00,25.1,15.4,29.80,WNW,286,12.0,21.0,66,0.00,,---,0.00,VWS V14.00,2013-02-21 10:54:00,
2013-02-21 05:59:00,25.1,15.0,29.81,WSW,258,9.0,21.0,65,0.00,,---,0.00,VWS V14.00,2013-02-21 10:59:00,
2013-02-21 06:04:00,24.9,14.8,29.80,NW,316,9.0,13.0,65,0.00,,---,0.00,VWS V14.00,2013-02-21 11:04:00,
2013-02-21 06:09:00,24.8,15.1,29.80,WSW,256,6.0,17.0,66,0.00,,---,0.00,VWS V14.00,2013-02-21 11:09:00,
2013-02-21 06:14:00,24.7,15.0,29.80,WNW,294,7.0,17.0,66,0.00,,---,0.00,VWS V14.00,2013-02-21 11:14:00,
2013-02-21 06:19:00,24.5,14.8,29.81,WSW,252,5.0,17.0,66,0.00,,---,0.00,VWS V14.00,2013-02-21 11:19:00,
2013-02-21 06:24:00,24.4,14.7,29.81,West,277,10.0,17.0,66,0.00,,---,0.00,VWS V14.00,2013-02-21 11:24:00,
2013-02-21 06:29:00,24.4,14.7,29.81,NW,315,8.0,17.0,66,0.00,,---,0.00,VWS V14.00,2013-02-21 11:29:00,
2013-02-21 06:34:00,24.4,14.7,29.81,WNW,294,6.0,14.0,66,0.00,,---,0.00,VWS V14.00,2013-02-21 11:34:00,
2013-02-21 06:39:00,24.4,14.7,29.81,West,263,4.0,15.0,66,0.00,,---,0.00,VWS V14.00,2013-02-21 11:39:00,
2013-02-21 06:44:00,24.3,14.6,29.81,WSW,241,6.0,18.0,66,0.00,,---,0.00,VWS V14.00,2013-02-21 11:44:00,
2013-02-21 06:49:00,24.3,14.6,29.81,WSW,241,5.0,18.0,66,0.00,,---,0.00,VWS V14.00,2013-02-21 11:49:00,
2013-02-21 06:54:00,24.3,14.6,29.81,WSW,257,3.0,18.0,66,0.00,,---,0.00,VWS V14.00,2013-02-21 11:54:00,
2013-02-21 06:59:00,24.3,14.6,29.81,West,277,9.0,18.0,66,0.00,,---,0.00,VWS V14.00,2013-02-21 11:59:00,
2013-02-21 07:04:00,24.3,14.6,29.82,WNW,288,7.0,14.0,66,0.00,,---,0.00,VWS V14.00,2013-02-21 12:04:00,
2013-02-21 07:09:00,24.3,14.6,29.82,WNW,302,2.0,14.0,66,0.00,,---,0.00,VWS V14.00,2013-02-21 12:09:00,
2013-02-21 07:14:00,24.2,14.8,29.82,WNW,298,8.0,14.0,67,0.00,,---,0.00,VWS V14.00,2013-02-21 12:14:00,
2013-02-21 07:19:00,24.2,14.5,29.82,NW,315,6.0,14.0,66,0.00,,---,0.00,VWS V14.00,2013-02-21 12:19:00,
2013-02-21 07:24:00,24.4,14.7,29.82,NW,305,13.0,14.0,66,0.00,,---,0.00,VWS V14.00,2013-02-21 12:24:00,
2013-02-21 07:29:00,24.3,14.6,29.82,NNW,347,5.0,14.0,66,0.00,,---,0.00,VWS V14.00,2013-02-21 12:29:00,
2013-02-21 07:34:00,24.3,14.6,29.82,WNW,293,7.0,14.0,66,0.00,,---,0.00,VWS V14.00,2013-02-21 12:34:00,
2013-02-21 07:39:00,24.4,14.7,29.82,WNW,301,8.0,14.0,66,0.00,,---,0.00,VWS V14.00,2013-02-21 12:39:00,
2013-02-21 07:44:00,24.6,14.9,29.82,WNW,295,4.0,15.0,66,0.00,,---,0.00,VWS V14.00,2013-02-21 12:44:00,
2013-02-21 07:49:00,24.7,15.0,29.82,NNW,333,3.0,15.0,66,0.00,,---,0.00,VWS V14.00,2013-02-21 12:49:00,
2013-02-21 07:54:00,24.8,15.1,29.82,West,280,8.0,15.0,66,0.00,,---,0.00,VWS V14.00,2013-02-21 12:54:00,
2013-02-21 07:59:00,24.9,14.8,29.82,WNW,298,10.0,15.0,65,0.00,,---,0.00,VWS V14.00,2013-02-21 12:59:00,
2013-02-21 08:04:00,25.0,14.9,29.81,WSW,257,6.0,16.0,65,0.00,,---,0.00,VWS V14.00,2013-02-21 13:04:00,
2013-02-21 08:09:00,25.1,15.0,29.81,NW,304,6.0,16.0,65,0.00,,---,0.00,VWS V14.00,2013-02-21 13:09:00,
2013-02-21 08:14:00,25.1,15.0,29.81,WNW,296,9.0,20.0,65,0.00,,---,0.00,VWS V14.00,2013-02-21 13:14:00,
2013-02-21 08:19:00,25.1,15.0,29.81,West,260,6.0,20.0,65,0.00,,---,0.00,VWS V14.00,2013-02-21 13:19:00,
2013-02-21 08:24:00,25.2,15.1,29.81,NW,313,10.0,20.0,65,0.00,,---,0.00,VWS V14.00,2013-02-21 13:24:00,
2013-02-21 08:29:00,25.2,15.1,29.80,West,274,11.0,20.0,65,0.00,,---,0.00,VWS V14.00,2013-02-21 13:29:00,
2013-02-21 08:34:00,25.3,15.2,29.81,WNW,294,4.0,17.0,65,0.00,,---,0.00,VWS V14.00,2013-02-21 13:34:00,
2013-02-21 08:39:00,25.3,14.8,29.81,WSW,250,7.0,17.0,64,0.00,,---,0.00,VWS V14.00,2013-02-21 13:39:00,
2013-02-21 08:44:00,25.2,15.1,29.81,WNW,286,7.0,17.0,65,0.00,,---,0.00,VWS V14.00,2013-02-21 13:44:00,
2013-02-21 08:49:00,25.2,14.8,29.82,WNW,293,10.0,17.0,64,0.00,,---,0.00,VWS V14.00,2013-02-21 13:49:00,
2013-02-21 08:54:00,25.5,15.4,29.81,WNW,300,5.0,20.0,65,0.00,,---,0.00,VWS V14.00,2013-02-21 13:54:00,
2013-02-21 08:59:00,25.8,15.3,29.81,NW,315,15.0,20.0,64,0.00,,---,0.00,VWS V14.00,2013-02-21 13:59:00,
2013-02-21 09:04:00,26.1,15.6,29.80,NW,306,19.0,19.0,64,0.00,,---,0.00,VWS V14.00,2013-02-21 14:04:00,
2013-02-21 09:09:00,26.3,15.4,29.80,NW,307,16.0,22.0,63,0.00,,---,0.00,VWS V14.00,2013-02-21 14:09:00,
2013-02-21 09:14:00,26.5,15.6,29.80,WNW,292,9.0,22.0,63,0.00,,---,0.00,VWS V14.00,2013-02-21 14:14:00,
2013-02-21 09:19:00,26.9,16.0,29.81,NNW,339,8.0,22.0,63,0.00,,---,0.00,VWS V14.00,2013-02-21 14:19:00,
2013-02-21 09:24:00,26.9,15.6,29.81,West,267,8.0,22.0,62,0.00,,---,0.00,VWS V14.00,2013-02-21 14:24:00,
2013-02-21 09:29:00,27.0,15.7,29.81,West,270,10.0,22.0,62,0.00,,---,0.00,VWS V14.00,2013-02-21 14:29:00,
2013-02-21 09:34:00,27.0,15.7,29.81,West,263,10.0,18.0,62,0.00,,---,0.00,VWS V14.00,2013-02-21 14:34:00,
2013-02-21 09:39:00,27.4,16.1,29.80,North,5,6.0,18.0,62,0.00,,---,0.00,VWS V14.00,2013-02-21 14:39:00,
2013-02-21 09:44:00,27.9,16.6,29.80,West,267,5.0,18.0,62,0.00,,---,0.00,VWS V14.00,2013-02-21 14:44:00,
2013-02-21 09:49:00,27.8,16.1,29.80,WNW,285,14.0,18.0,61,0.00,,---,0.00,VWS V14.00,2013-02-21 14:49:00,
2013-02-21 09:54:00,27.9,16.2,29.80,WNW,303,6.0,18.0,61,0.00,,---,0.00,VWS V14.00,2013-02-21 14:54:00,
2013-02-21 09:59:00,28.3,16.2,29.81,NW,313,8.0,18.0,60,0.00,,---,0.00,VWS V14.00,2013-02-21 14:59:00,
2013-02-21 10:04:00,28.4,16.3,29.80,WSW,248,8.0,16.0,60,0.00,,---,0.00,VWS V14.00,2013-02-21 15:04:00,
2013-02-21 10:09:00,28.3,15.8,29.80,West,276,11.0,22.0,59,0.00,,---,0.00,VWS V14.00,2013-02-21 15:09:00,
2013-02-21 10:14:00,28.5,16.4,29.80,West,277,12.0,22.0,60,0.00,,---,0.00,VWS V14.00,2013-02-21 15:14:00,
2013-02-21 10:19:00,28.5,16.0,29.81,WNW,299,10.0,22.0,59,0.00,,---,0.00,VWS V14.00,2013-02-21 15:19:00,
2013-02-21 10:24:00,28.7,15.8,29.81,WNW,287,14.0,22.0,58,0.00,,---,0.00,VWS V14.00,2013-02-21 15:24:00,
2013-02-21 10:29:00,28.4,15.5,29.80,WNW,301,6.0,22.0,58,0.00,,---,0.00,VWS V14.00,2013-02-21 15:29:00,
2013-02-21 10:34:00,28.7,15.8,29.81,WNW,300,4.0,16.0,58,0.00,,---,0.00,VWS V14.00,2013-02-21 15:34:00,
2013-02-21 10:39:00,28.7,15.8,29.81,WSW,247,9.0,23.0,58,0.00,,---,0.00,VWS V14.00,2013-02-21 15:39:00,
2013-02-21 10:44:00,28.4,15.5,29.81,NW,304,3.0,23.0,58,0.00,,---,0.00,VWS V14.00,2013-02-21 15:44:00,
2013-02-21 10:49:00,28.7,16.2,29.81,WNW,291,10.0,23.0,59,0.00,,---,0.00,VWS V14.00,2013-02-21 15:49:00,
2013-02-21 10:54:00,28.7,15.4,29.81,NW,325,11.0,23.0,57,0.00,,---,0.00,VWS V14.00,2013-02-21 15:54:00,
2013-02-21 10:59:00,28.8,15.9,29.81,West,275,3.0,23.0,58,0.00,,---,0.00,VWS V14.00,2013-02-21 15:59:00,
2013-02-21 11:04:00,29.3,16.4,29.81,NW,323,18.0,19.0,58,0.00,,---,0.00,VWS V14.00,2013-02-21 16:04:00,
2013-02-21 11:09:00,29.3,16.0,29.81,WNW,294,10.0,19.0,57,0.00,,---,0.00,VWS V14.00,2013-02-21 16:09:00,
2013-02-21 11:14:00,29.7,16.4,29.81,WNW,285,8.0,19.0,57,0.00,,---,0.00,VWS V14.00,2013-02-21 16:14:00,
2013-02-21 11:19:00,29.6,16.6,29.80,WNW,284,7.0,19.0,58,0.00,,---,0.00,VWS V14.00,2013-02-21 16:19:00,
2013-02-21 11:24:00,29.8,16.4,29.81,West,277,11.0,19.0,57,0.00,,---,0.00,VWS V14.00,2013-02-21 16:24:00,
2013-02-21 11:29:00,29.5,15.8,29.81,NW,322,7.0,20.0,56,0.00,,---,0.00,VWS V14.00,2013-02-21 16:29:00,
2013-02-21 11:34:00,29.2,15.5,29.81,NW,318,14.0,17.0,56,0.00,,---,0.00,VWS V14.00,2013-02-21 16:34:00,
2013-02-21 11:39:00,29.5,15.8,29.80,WSW,248,8.0,17.0,56,0.00,,---,0.00,VWS V14.00,2013-02-21 16:39:00,
2013-02-21 11:44:00,29.6,15.8,29.81,WNW,294,15.0,20.0,56,0.00,,---,0.00,VWS V14.00,2013-02-21 16:44:00,
2013-02-21 11:49:00,29.8,15.6,29.81,NNW,343,5.0,20.0,55,0.00,,---,0.00,VWS V14.00,2013-02-21 16:49:00,
2013-02-21 11:54:00,29.9,15.3,29.81,NW,304,14.0,20.0,54,0.00,,---,0.00,VWS V14.00,2013-02-21 16:54:00,
2013-02-21 11:59:00,29.7,15.1,29.81,WSW,242,7.0,20.0,54,0.00,,---,0.00,VWS V14.00,2013-02-21 16:59:00,
2013-02-21 12:04:00,29.9,16.1,29.81,WNW,295,11.0,15.0,56,0.00,,---,0.00,VWS V14.00,2013-02-21 17:04:00,
2013-02-21 12:09:00,30.2,16.0,29.81,North,5,9.0,18.0,55,0.00,,---,0.00,VWS V14.00,2013-02-21 17:09:00,
2013-02-21 12:14:00,30.1,15.9,29.81,West,269,7.0,18.0,55,0.00,,---,0.00,VWS V14.00,2013-02-21 17:14:00,
2013-02-21 12:19:00,30.2,16.0,29.81,NNW,329,3.0,18.0,55,0.00,,---,0.00,VWS V14.00,2013-02-21 17:19:00,
2013-02-21 12:24:00,30.5,16.3,29.81,WSW,243,7.0,18.0,55,0.00,,---,0.00,VWS V14.00,2013-02-21 17:24:00,
2013-02-21 12:29:00,30.6,16.4,29.81,NW,317,10.0,21.0,55,0.00,,---,0.00,VWS V14.00,2013-02-21 17:29:00,
2013-02-21 12:34:00,30.3,16.1,29.81,West,265,11.0,16.0,55,0.00,,---,0.00,VWS V14.00,2013-02-21 17:34:00,
2013-02-21 12:39:00,30.2,15.6,29.81,WNW,298,9.0,19.0,54,0.00,,---,0.00,VWS V14.00,2013-02-21 17:39:00,
2013-02-21 12:44:00,30.1,15.9,29.80,WNW,289,6.0,19.0,55,0.00,,---,0.00,VWS V14.00,2013-02-21 17:44:00,
2013-02-21 12:49:00,30.9,16.2,29.80,West,262,5.0,19.0,54,0.00,,---,0.00,VWS V14.00,2013-02-21 17:49:00,
2013-02-21 12:54:00,30.7,16.0,29.80,West,275,10.0,20.0,54,0.00,,---,0.00,VWS V14.00,2013-02-21 17:54:00,
2013-02-21 12:59:00,30.4,16.2,29.80,West,275,8.0,21.0,55,0.00,,---,0.00,VWS V14.00,2013-02-21 17:59:00,
2013-02-21 13:04:00,30.5,15.9,29.80,NNW,334,17.0,20.0,54,0.00,,---,0.00,VWS V14.00,2013-02-21 18:04:00,
2013-02-21 13:09:00,30.5,15.4,29.80,NNW,343,9.0,20.0,53,0.00,,---,0.00,VWS V14.00,2013-02-21 18:09:00,
2013-02-21 13:14:00,30.6,15.9,29.80,NW,308,8.0,20.0,54,0.00,,---,0.00,VWS V14.00,2013-02-21 18:14:00,
2013-02-21 13:19:00,30.9,16.2,29.80,NW,305,13.0,20.0,54,0.00,,---,0.00,VWS V14.00,2013-02-21 18:19:00,
2013-02-21 13:24:00,31.1,16.0,29.80,WNW,300,17.0,24.0,53,0.00,,---,0.00,VWS V14.00,2013-02-21 18:24:00,
2013-02-21 13:29:00,30.8,16.1,29.79,NW,323,10.0,24.0,54,0.00,,---,0.00,VWS V14.00,2013-02-21 18:29:00,
2013-02-21 13:34:00,31.1,16.0,29.79,WSW,258,10.0,18.0,53,0.00,,---,0.00,VWS V14.00,2013-02-21 18:34:00,
2013-02-21 13:39:00,31.2,16.1,29.80,WNW,294,7.0,25.0,53,0.00,,---,0.00,VWS V14.00,2013-02-21 18:39:00,
2013-02-21 13:44:00,31.3,16.2,29.80,NW,312,11.0,25.0,53,0.00,,---,0.00,VWS V14.00,2013-02-21 18:44:00,
2013-02-21 13:49:00,32.0,17.2,29.80,NNW,346,3.0,25.0,54,0.00,,---,0.00,VWS V14.00,2013-02-21 18:49:00,
2013-02-21 13:54:00,32.3,16.7,29.80,NW,311,13.0,25.0,52,0.00,,---,0.00,VWS V14.00,2013-02-21 18:54:00,
2013-02-21 13:59:00,32.7,17.0,29.80,WNW,288,8.0,25.0,52,0.00,,---,0.00,VWS V14.00,2013-02-21 18:59:00,
2013-02-21 14:04:00,32.4,16.8,29.80,NW,304,8.0,17.0,52,0.00,,---,0.00,VWS V14.00,2013-02-21 19:04:00,
2013-02-21 14:09:00,32.4,16.3,29.80,NW,308,19.0,24.0,51,0.00,,---,0.00,VWS V14.00,2013-02-21 19:09:00,
2013-02-21 14:14:00,32.5,16.9,29.80,West,268,12.0,24.0,52,0.00,,---,0.00,VWS V14.00,2013-02-21 19:14:00,
2013-02-21 14:19:00,32.5,16.4,29.80,WNW,294,13.0,24.0,51,0.00,,---,0.00,VWS V14.00,2013-02-21 19:19:00,
2013-02-21 14:24:00,32.8,17.1,29.80,WNW,290,10.0,24.0,52,0.00,,---,0.00,VWS V14.00,2013-02-21 19:24:00,
2013-02-21 14:29:00,33.0,17.3,29.81,WNW,303,20.0,24.0,52,0.00,,---,0.00,VWS V14.00,2013-02-21 19:29:00,
2013-02-21 14:34:00,32.8,16.7,29.80,WNW,290,22.0,22.0,51,0.00,,---,0.00,VWS V14.00,2013-02-21 19:34:00,
2013-02-21 14:39:00,33.1,17.0,29.80,WNW,300,3.0,22.0,51,0.00,,---,0.00,VWS V14.00,2013-02-21 19:39:00,
2013-02-21 14:44:00,33.7,17.5,29.81,WNW,287,13.0,22.0,51,0.00,,---,0.00,VWS V14.00,2013-02-21 19:44:00,
2013-02-21 14:49:00,33.8,17.6,29.81,West,275,6.0,22.0,51,0.00,,---,0.00,VWS V14.00,2013-02-21 19:49:00,
2013-02-21 14:54:00,34.2,18.4,29.81,West,276,4.0,22.0,52,0.00,,---,0.00,VWS V14.00,2013-02-21 19:54:00,
2013-02-21 14:59:00,34.1,17.9,29.82,WNW,300,12.0,22.0,51,0.00,,---,0.00,VWS V14.00,2013-02-21 19:59:00,
2013-02-21 15:04:00,33.8,17.6,29.82,NW,321,3.0,17.0,51,0.00,,---,0.00,VWS V14.00,2013-02-21 20:04:00,
2013-02-21 15:09:00,33.8,17.6,29.82,WSW,252,4.0,20.0,51,0.00,,---,0.00,VWS V14.00,2013-02-21 20:09:00,
2013-02-21 15:14:00,34.1,17.4,29.83,NW,307,6.0,22.0,50,0.00,,---,0.00,VWS V14.00,2013-02-21 20:14:00,
2013-02-21 15:19:00,33.8,17.6,29.82,NW,304,8.0,22.0,51,0.00,,---,0.00,VWS V14.00,2013-02-21 20:19:00,
2013-02-21 15:24:00,33.5,17.3,29.83,WNW,284,12.0,22.0,51,0.00,,---,0.00,VWS V14.00,2013-02-21 20:24:00,
2013-02-21 15:29:00,33.4,17.2,29.83,NW,325,5.0,24.0,51,0.00,,---,0.00,VWS V14.00,2013-02-21 20:29:00,
2013-02-21 15:34:00,33.2,17.0,29.83,NNW,336,2.0,17.0,51,0.00,,---,0.00,VWS V14.00,2013-02-21 20:34:00,
2013-02-21 15:39:00,32.8,17.1,29.83,NNW,332,11.0,20.0,52,0.00,,---,0.00,VWS V14.00,2013-02-21 20:39:00,
2013-02-21 15:44:00,32.8,17.1,29.84,West,276,13.0,21.0,52,0.00,,---,0.00,VWS V14.00,2013-02-21 20:44:00,
2013-02-21 15:49:00,32.7,17.0,29.84,WNW,298,17.0,21.0,52,0.00,,---,0.00,VWS V14.00,2013-02-21 20:49:00,
2013-02-21 15:54:00,32.5,16.9,29.84,NNW,345,7.0,26.0,52,0.00,,---,0.00,VWS V14.00,2013-02-21 20:54:00,
2013-02-21 15:59:00,32.2,16.6,29.85,NW,320,9.0,26.0,52,0.00,,---,0.00,VWS V14.00,2013-02-21 20:59:00,
2013-02-21 16:04:00,32.2,16.6,29.85,NW,307,12.0,18.0,52,0.00,,---,0.00,VWS V14.00,2013-02-21 21:04:00,
2013-02-21 16:09:00,32.1,16.5,29.86,WNW,293,12.0,22.0,52,0.00,,---,0.00,VWS V14.00,2013-02-21 21:09:00,
2013-02-21 16:14:00,31.9,16.3,29.86,WNW,284,15.0,26.0,52,0.00,,---,0.00,VWS V14.00,2013-02-21 21:14:00,
2013-02-21 16:19:00,31.8,16.6,29.86,WNW,296,6.0,26.0,53,0.00,,---,0.00,VWS V14.00,2013-02-21 21:19:00,
2013-02-21 16:24:00,31.8,16.2,29.86,NW,321,4.0,26.0,52,0.00,,---,0.00,VWS V14.00,2013-02-21 21:24:00,
2013-02-21 16:29:00,31.7,16.5,29.87,NW,311,7.0,26.0,53,0.00,,---,0.00,VWS V14.00,2013-02-21 21:29:00,
2013-02-21 16:34:00,31.7,16.5,29.87,WNW,298,9.0,21.0,53,0.00,,---,0.00,VWS V14.00,2013-02-21 21:34:00,
2013-02-21 16:39:00,31.6,16.5,29.87,WNW,295,5.0,21.0,53,0.00,,---,0.00,VWS V14.00,2013-02-21 21:39:00,
2013-02-21 16:44:00,31.6,16.9,29.88,NNW,341,6.0,21.0,54,0.00,,---,0.00,VWS V14.00,2013-02-21 21:44:00,
2013-02-21 16:49:00,31.6,16.9,29.88,NNW,348,16.0,21.0,54,0.00,,---,0.00,VWS V14.00,2013-02-21 21:49:00,
2013-02-21 16:54:00,31.4,16.7,29.88,NW,304,12.0,21.0,54,0.00,,---,0.00,VWS V14.00,2013-02-21 21:54:00,
2013-02-21 16:59:00,31.2,16.5,29.89,NW,308,5.0,21.0,54,0.00,,---,0.00,VWS V14.00,2013-02-21 21:59:00,
2013-02-21 17:04:00,31.0,16.3,29.90,NW,310,11.0,18.0,54,0.00,,---,0.00,VWS V14.00,2013-02-21 22:04:00,
2013-02-21 17:09:00,30.8,16.5,29.90,WNW,297,7.0,19.0,55,0.00,,---,0.00,VWS V14.00,2013-02-21 22:09:00,
2013-02-21 17:14:00,30.6,16.4,29.90,NNW,328,9.0,19.0,55,0.00,,---,0.00,VWS V14.00,2013-02-21 22:14:00,
2013-02-21 17:19:00,30.3,16.5,29.91,NNW,340,4.0,20.0,56,0.00,,---,0.00,VWS V14.00,2013-02-21 22:19:00,
2013-02-21 17:24:00,30.1,16.3,29.91,WNW,294,6.0,20.0,56,0.00,,---,0.00,VWS V14.00,2013-02-21 22:24:00,
2013-02-21 17:29:00,29.9,16.1,29.92,North,360,16.0,20.0,56,0.00,,---,0.00,VWS V14.00,2013-02-21 22:29:00,
2013-02-21 17:34:00,29.8,16.0,29.93,NW,311,13.0,15.0,56,0.00,,---,0.00,VWS V14.00,2013-02-21 22:34:00,
2013-02-21 17:39:00,29.6,15.8,29.93,WNW,300,6.0,24.0,56,0.00,,---,0.00,VWS V14.00,2013-02-21 22:39:00,
2013-02-21 17:44:00,29.5,16.2,29.93,NW,324,3.0,24.0,57,0.00,,---,0.00,VWS V14.00,2013-02-21 22:44:00,
2013-02-21 17:49:00,29.4,16.1,29.94,WNW,286,8.0,24.0,57,0.00,,---,0.00,VWS V14.00,2013-02-21 22:49:00,
2013-02-21 17:54:00,29.3,16.0,29.95,North,350,9.0,24.0,57,0.00,,---,0.00,VWS V14.00,2013-02-21 22:54:00,
2013-02-21 17:59:00,29.2,15.9,29.95,NW,325,8.0,24.0,57,0.00,,---,0.00,VWS V14.00,2013-02-21 22:59:00,
2013-02-21 18:04:00,29.0,16.1,29.95,NW,309,15.0,19.0,58,0.00,,---,0.00,VWS V14.00,2013-02-21 23:04:00,
2013-02-21 18:09:00,29.0,16.1,29.96,SSW,192,1.0,19.0,58,0.00,,---,0.00,VWS V14.00,2013-02-21 23:09:00,
2013-02-21 18:14:00,28.8,15.9,29.96,NW,311,6.0,19.0,58,0.00,,---,0.00,VWS V14.00,2013-02-21 23:14:00,
2013-02-21 18:19:00,28.8,15.9,29.96,WNW,288,7.0,21.0,58,0.00,,---,0.00,VWS V14.00,2013-02-21 23:19:00,
2013-02-21 18:24:00,28.8,15.9,29.97,NE,55,7.0,21.0,58,0.00,,---,0.00,VWS V14.00,2013-02-21 23:24:00,
2013-02-21 18:29:00,28.7,16.2,29.97,West,272,11.0,21.0,59,0.00,,---,0.00,VWS V14.00,2013-02-21 23:29:00,
2013-02-21 18:34:00,28.6,16.1,29.97,NW,307,7.0,22.0,59,0.00,,---,0.00,VWS V14.00,2013-02-21 23:34:00,
2013-02-21 18:39:00,28.5,16.0,29.97,NW,311,8.0,23.0,59,0.00,,---,0.00,VWS V14.00,2013-02-21 23:39:00,
2013-02-21 18:44:00,28.4,15.9,29.97,NW,326,3.0,23.0,59,0.00,,---,0.00,VWS V14.00,2013-02-21 23:44:00,
2013-02-21 18:49:00,28.1,16.0,29.98,NW,305,5.0,23.0,60,0.00,,---,0.00,VWS V14.00,2013-02-21 23:49:00,
2013-02-21 18:54:00,28.0,15.9,29.98,West,272,11.0,23.0,60,0.00,,---,0.00,VWS V14.00,2013-02-21 23:54:00,
2013-02-21 18:59:00,27.9,15.8,29.99,NW,310,10.0,23.0,60,0.00,,---,0.00,VWS V14.00,2013-02-21 23:59:00,
2013-02-21 19:04:00,27.9,15.8,29.99,NW,314,9.0,15.0,60,0.00,,---,0.00,VWS V14.00,2013-02-22 00:04:00,
2013-02-21 19:09:00,27.8,15.7,30.00,WNW,285,5.0,17.0,60,0.00,,---,0.00,VWS V14.00,2013-02-22 00:09:00,
2013-02-21 19:14:00,27.8,16.1,30.00,NW,309,3.0,17.0,61,0.00,,---,0.00,VWS V14.00,2013-02-22 00:14:00,
2013-02-21 19:19:00,27.8,16.1,30.00,North,5,7.0,19.0,61,0.00,,---,0.00,VWS V14.00,2013-02-22 00:19:00,
2013-02-21 19:24:00,27.7,16.0,30.00,NNW,342,6.0,19.0,61,0.00,,---,0.00,VWS V14.00,2013-02-22 00:24:00,
2013-02-21 19:29:00,27.6,16.3,30.00,NNW,344,9.0,19.0,62,0.00,,---,0.00,VWS V14.00,2013-02-22 00:29:00,
2013-02-21 19:34:00,27.5,16.2,30.00,WNW,302,8.0,11.0,62,0.00,,---,0.00,VWS V14.00,2013-02-22 00:34:00,
2013-02-21 19:39:00,27.4,16.5,30.00,WNW,290,7.0,15.0,63,0.00,,---,0.00,VWS V14.00,2013-02-22 00:39:00,
2013-02-21 19:44:00,27.3,16.4,30.01,WNW,291,6.0,15.0,63,0.00,,---,0.00,VWS V14.00,2013-02-22 00:44:00,
2013-02-21 19:49:00,27.3,16.4,30.01,NNW,335,6.0,15.0,63,0.00,,---,0.00,VWS V14.00,2013-02-22 00:49:00,
2013-02-21 19:54:00,27.3,16.4,30.01,North,355,6.0,15.0,63,0.00,,---,0.00,VWS V14.00,2013-02-22 00:54:00,
2013-02-21 19:59:00,27.3,16.4,30.02,North,5,5.0,17.0,63,0.00,,---,0.00,VWS V14.00,2013-02-22 00:59:00,
2013-02-21 20:04:00,27.4,16.5,30.02,NNW,329,5.0,9.0,63,0.00,,---,0.00,VWS V14.00,2013-02-22 01:04:00,
2013-02-21 20:09:00,27.3,16.4,30.02,NE,37,7.0,11.0,63,0.00,,---,0.00,VWS V14.00,2013-02-22 01:09:00,
2013-02-21 20:14:00,27.3,16.4,30.02,NNW,348,8.0,13.0,63,0.00,,---,0.00,VWS V14.00,2013-02-22 01:14:00,
2013-02-21 20:19:00,27.3,16.8,30.03,NW,325,7.0,14.0,64,0.00,,---,0.00,VWS V14.00,2013-02-22 01:19:00,
2013-02-21 20:24:00,27.2,16.6,30.04,North,350,7.0,14.0,64,0.00,,---,0.00,VWS V14.00,2013-02-22 01:24:00,
2013-02-21 20:29:00,27.2,16.6,30.04,West,276,4.0,14.0,64,0.00,,---,0.00,VWS V14.00,2013-02-22 01:29:00,
2013-02-21 20:34:00,27.0,16.8,30.05,ESE,109,3.0,8.0,65,0.00,,---,0.00,VWS V14.00,2013-02-22 01:34:00,
2013-02-21 20:39:00,26.9,16.7,30.05,WNW,290,4.0,14.0,65,0.00,,---,0.00,VWS V14.00,2013-02-22 01:39:00,
2013-02-21 20:44:00,26.9,16.7,30.05,WNW,286,6.0,14.0,65,0.00,,---,0.00,VWS V14.00,2013-02-22 01:44:00,
2013-02-21 20:49:00,27.0,16.8,30.05,NE,39,4.0,14.0,65,0.00,,---,0.00,VWS V14.00,2013-02-22 01:49:00,
2013-02-21 20:54:00,27.0,16.8,30.06,NNW,347,2.0,14.0,65,0.00,,---,0.00,VWS V14.00,2013-02-22 01:54:00,
2013-02-21 20:59:00,26.9,17.1,30.06,NE,34,3.0,14.0,66,0.00,,---,0.00,VWS V14.00,2013-02-22 01:59:00,
2013-02-21 21:04:00,26.8,17.0,30.06,North,355,4.0,8.0,66,0.00,,---,0.00,VWS V14.00,2013-02-22 02:04:00,
2013-02-21 21:09:00,26.8,17.0,30.07,NW,313,1.0,9.0,66,0.00,,---,0.00,VWS V14.00,2013-02-22 02:09:00,
2013-02-21 21:14:00,26.8,17.0,30.07,NNW,342,3.0,9.0,66,0.00,,---,0.00,VWS V14.00,2013-02-22 02:14:00,
2013-02-21 21:19:00,26.7,17.2,30.07,NNW,333,4.0,9.0,67,0.00,,---,0.00,VWS V14.00,2013-02-22 02:19:00,
2013-02-21 21:24:00,26.7,17.2,30.08,North,5,2.0,18.0,67,0.00,,---,0.00,VWS V14.00,2013-02-22 02:24:00,
2013-02-21 21:29:00,26.8,17.3,30.08,NW,304,4.0,18.0,67,0.00,,---,0.00,VWS V14.00,2013-02-22 02:29:00,
2013-02-21 21:34:00,27.0,17.5,30.08,NNW,327,2.0,10.0,67,0.00,,---,0.00,VWS V14.00,2013-02-22 02:34:00,
2013-02-21 21:39:00,27.0,17.5,30.08,NW,315,1.0,12.0,67,0.00,,---,0.00,VWS V14.00,2013-02-22 02:39:00,
2013-02-21 21:44:00,26.8,17.7,30.08,NNE,13,5.0,12.0,68,0.00,,---,0.00,VWS V14.00,2013-02-22 02:44:00,
2013-02-21 21:49:00,26.8,17.7,30.08,North,351,2.0,12.0,68,0.00,,---,0.00,VWS V14.00,2013-02-22 02:49:00,
2013-02-21 21:54:00,26.8,17.7,30.08,NE,34,5.0,12.0,68,0.00,,---,0.00,VWS V14.00,2013-02-22 02:54:00,
2013-02-21 21:59:00,26.8,17.7,30.09,NW,321,2.0,12.0,68,0.00,,---,0.00,VWS V14.00,2013-02-22 02:59:00,
2013-02-21 22:04:00,26.8,17.7,30.09,WNW,292,8.0,8.0,68,0.00,,---,0.00,VWS V14.00,2013-02-22 03:04:00,
2013-02-21 22:08:00,26.8,17.7,30.09,NW,306,5.0,11.0,68,0.00,,---,0.00,VWS V14.00,2013-02-22 03:08:00,
2013-02-21 22:13:00,26.7,17.6,30.09,WNW,301,6.0,11.0,68,0.00,,---,0.00,VWS V14.00,2013-02-22 03:13:00,
2013-02-21 22:18:00,26.6,17.5,30.10,WNW,300,3.0,11.0,68,0.00,,---,0.00,VWS V14.00,2013-02-22 03:18:00,
2013-02-21 22:23:00,26.5,17.7,30.10,NW,304,8.0,11.0,69,0.00,,---,0.00,VWS V14.00,2013-02-22 03:23:00,
2013-02-21 22:28:00,26.5,17.7,30.11,NW,306,4.0,11.0,69,0.00,,---,0.00,VWS V14.00,2013-02-22 03:28:00,
2013-02-21 22:33:00,26.3,17.5,30.11,NW,313,3.0,7.0,69,0.00,,---,0.00,VWS V14.00,2013-02-22 03:33:00,
2013-02-21 22:38:00,26.4,17.6,30.10,NNW,333,2.0,12.0,69,0.00,,---,0.00,VWS V14.00,2013-02-22 03:38:00,
2013-02-21 22:43:00,26.4,17.6,30.11,WNW,290,3.0,12.0,69,0.00,,---,0.00,VWS V14.00,2013-02-22 03:43:00,
2013-02-21 22:48:00,26.5,17.7,30.12,WNW,288,8.0,12.0,69,0.00,,---,0.00,VWS V14.00,2013-02-22 03:48:00,
2013-02-21 22:53:00,26.5,17.7,30.13,NW,321,2.0,12.0,69,0.00,,---,0.00,VWS V14.00,2013-02-22 03:53:00,
2013-02-21 22:58:00,26.5,18.0,30.13,NW,309,8.0,12.0,70,0.00,,---,0.00,VWS V14.00,2013-02-22 03:58:00,
2013-02-21 23:03:00,26.6,18.1,30.13,WNW,291,5.0,8.0,70,0.00,,---,0.00,VWS V14.00,2013-02-22 04:03:00,
2013-02-21 23:08:00,26.7,18.2,30.13,NW,326,5.0,9.0,70,0.00,,---,0.00,VWS V14.00,2013-02-22 04:08:00,
2013-02-21 23:13:00,26.7,18.2,30.13,NW,317,6.0,9.0,70,0.00,,---,0.00,VWS V14.00,2013-02-22 04:13:00,
2013-02-21 23:18:00,26.7,18.2,30.13,NNW,343,4.0,9.0,70,0.00,,---,0.00,VWS V14.00,2013-02-22 04:18:00,
2013-02-21 23:23:00,26.6,18.1,30.13,NW,319,4.0,9.0,70,0.00,,---,0.00,VWS V14.00,2013-02-22 04:23:00,
2013-02-21 23:28:00,26.6,18.1,30.15,NW,315,2.0,10.0,70,0.00,,---,0.00,VWS V14.00,2013-02-22 04:28:00,
2013-02-21 23:33:00,26.7,18.2,30.15,NNW,342,2.0,13.0,70,0.00,,---,0.00,VWS V14.00,2013-02-22 04:33:00,
2013-02-21 23:38:00,26.7,18.2,30.15,NW,304,6.0,13.0,70,0.00,,---,0.00,VWS V14.00,2013-02-22 04:38:00,
2013-02-21 23:43:00,26.7,18.2,30.16,NNW,334,4.0,13.0,70,0.00,,---,0.00,VWS V14.00,2013-02-22 04:43:00,
2013-02-21 23:48:00,26.6,18.1,30.17,West,263,8.0,13.0,70,0.00,,---,0.00,VWS V14.00,2013-02-22 04:48:00,
2013-02-21 23:53:00,26.4,18.3,30.17,WNW,294,8.0,13.0,71,0.00,,---,0.00,VWS V14.00,2013-02-22 04:53:00,
2013-02-21 23:58:00,26.2,18.1,30.18,WNW,290,8.0,13.0,71,0.00,,---,0.00,VWS V14.00,2013-02-22 04:58:00,